AirNav   Bose Proflight Series 2 Wireless viation Headset
 
 536 users online  

51R Madisonville Municipal Airport
Madisonville, Texas, USA

GOING TO MADISONVILLE?


FAA INFORMATION EFFECTIVE 10 OCTOBER 2019

Location

FAA Identifier: 51R
Lat/Long: 30-54-46.2000N 095-57-07.2000W
30-54.770000N 095-57.120000W
30.9128333,-95.9520000
(estimated)
Elevation: 286.7 ft. / 87.4 m (surveyed)
Variation: 07E (1980)
From city: 3 miles SW of MADISONVILLE, TX
Time zone: UTC -5 (UTC -6 during Standard Time)
Zip code: 77864

Airport Operations

Airport use: Open to the public
Activation date: 05/1979
Control tower: no
ARTCC: HOUSTON CENTER
FSS: MONTGOMERY COUNTY FLIGHT SERVICE STATION
FOR FP FILING CALL CXO FSS 1-800-833-5602
NOTAMs facility: CXO (NOTAM-D service available)
Attendance: UNATNDD
Wind indicator: lighted
Segmented circle: yes
Lights: SS-SR
Beacon: white-green (lighted land airport)
Operates sunset to sunrise.

Airport Communications

CTAF: 122.9
  • APCH/DEP SVC PRVDD BY HOUSTON ATRCC (ZHU) ON 134.8/269.6 (COLLEGE STAION RCAG)

Nearby radio navigation aids

VOR radial/distance  VOR name  Freq  Var
LOAr168/12.7LEONA VORTAC110.8008E
CLLr045/30.4COLLEGE STATION VORTAC113.3008E
TNVr000/37.9NAVASOTA VOR/DME115.9008E

 
NDB name  Hdg/Dist  Freq  Var  ID
HUNTSVILLE293/21.330806EUTS ..- - ...

Airport Services

Fuel available: 100LL JET-A
Parking: tiedowns
Airframe service: NONE
Powerplant service: NONE
Bottled oxygen: NONE
Bulk oxygen: NONE

Runway Information

Runway 18/36

Dimensions: 3202 x 50 ft. / 976 x 15 m
Surface: asphalt, in fair condition
Weight bearing capacity: 
Single wheel: 4.0
Runway edge lights: medium intensity
Operational restrictions: RWY MARKINGS FADED.
RUNWAY 18  RUNWAY 36
Latitude: 30-55.030167N30-54.510183N
Longitude: 095-57.066033W095-57.173250W
Elevation: 286.7 ft.260.2 ft.
Traffic pattern: leftleft
Runway heading: 183 magnetic, 190 true003 magnetic, 010 true
Markings: nonprecision, in poor conditionnonprecision, in poor condition
Touchdown point: yes, no lightsyes, no lights
Obstructions: 61 ft. trees, 201 ft. from runway, 190 ft. left and right of centerline
50 FT TREES 180 FT R & 190 FT L, 0-199 FT DSTC.
50 ft. trees, 201 ft. from runway, 190 ft. left of centerline
+50 FT TREES 180 FT L & 200 FT R, 0-199 FT DSTC.

Airport Ownership and Management from official FAA records

Ownership: Publicly-owned
Owner: CITY OF MADISONVILLE
210 W. COTTONWOOD
MADISONVILLE, TX 77864
Phone 936-348-2748
Manager: CAMILLA VIATOR
210 W. COTTONWOOD
MADISONVILLE, TX 77864
Phone 936-348-2748

Airport Operational Statistics

Aircraft based on the field: 3
Single engine airplanes: 3
    
Aircraft operations: avg 57/week *
67% local general aviation
33% transient general aviation
* for 12-month period ending 31 December 2018

Additional Remarks

AIRPORT GATE LOCKED FROM 2200-0600 CALL 936-348-2748.
SELF SERVICE AVBL 24/7.
SKYDIVING ACTIVITY.
FOR CD CTC HOUSTON ARTCC AT 281-230-5622.

Instrument Procedures

NOTE: All procedures below are presented as PDF files. If you need a reader for these files, you should download the free Adobe Reader.

NOT FOR NAVIGATION. Please procure official charts for flight.
FAA instrument procedures published for use from 10 October 2019 at 0901Z to 7 November 2019 at 0900Z.

 
IAPs - Instrument Approach Procedures
RNAV (GPS) RWY 18 **CHANGED**   download (131KB)
RNAV (GPS) RWY 36 **CHANGED**   download (139KB)
VOR/DME RWY 18 **CHANGED**   download (141KB)
NOTE: Special Take-Off Minimums/Departure Procedures apply   download (70KB)

Other nearby airports with instrument procedures:

KUTS - Huntsville Municipal Airport (21 nm SE)
KCFD - Coulter Field Airport (23 nm SW)
KCLL - Easterwood Field Airport (29 nm SW)
60R - Navasota Municipal Airport (34 nm S)
KLHB - Hearne Municipal Airport (35 nm W)
 
Loc | Ops | Rwys | IFR | FBO | Links
Com | Nav | Svcs | Stats | Notes
Area around 51R (Madisonville Municipal Airport)
 
Road maps at: MapQuest Bing Google
 
Aerial photo
WARNING: Photo may not be current or correct
Aerial photo of 51R (Madisonville Municipal Airport)
Do you have a better or more recent aerial photo of Madisonville Municipal Airport that you would like to share? If so, please send us your photo.

 
Sectional chart

 
Airport distance calculator
Flying to Madisonville Municipal Airport? Find the distance to fly.

From to 51R

Sunrise and sunset
Times for 21-Oct-2019
 Local
(UTC-5)
 Zulu
(UTC)
Morning civil twilight07:0712:07
Sunrise07:3212:32
Sunset18:4523:45
Evening civil twilight19:1000:10

Current date and time
Zulu (UTC)  21-Oct-2019 11:21:04
Local (UTC-5)  21-Oct-2019 06:21:04
 
METAR
KUTS 
21nm SE 
211100Z AUTO 34005KT 5SM RA BR BKN038 BKN060 OVC090 19/18 A2977 RMK AO2 LTG DSNT N AND S P0001 T01940183
KCFD 
23nm SW 
211055Z AUTO 07003KT 10SM SCT095 BKN110 20/20 A2976 RMK AO2 LTG DSNT E THRU S P0001 T02020202
KCLL 
29nm SW 
211053Z AUTO 04006KT 10SM -RA BKN100 21/19 A2974 RMK AO2 LTG DSNT SE SLP068 P0004 T02060189
KLHB 
35nm W 
211055Z AUTO 31003KT 10SM CLR 20/19 A2975 RMK AO2 LTG DSNT NE P0004 T01950185
KDKR 
37nm NE 
211050Z AUTO 00000KT 10SM CLR 16/15 A2981 RMK AO2 LTG DSNT E-S PWINO
TAF
KUTS 
21nm SE 
210856Z 2109/2206 18011G19KT P6SM BKN018 TEMPO 2109/2110 21010G25KT 1SM TSRA BKN020CB FM211000 20010KT P6SM VCSH SCT025 OVC100 TEMPO 2110/2113 36025KT TSRA BKN019CB FM211300 36010G20KT P6SM SHRA VCTS BKN015CB FM211500 34012KT P6SM BKN100 FM211700 34011KT P6SM SCT250 FM212100 34006KT P6SM SKC
NOTAMs
Click for the latest NOTAMs
NOTAMs are issued by the DoD/FAA and will open in a separate window not controlled by AirNav.

 

 
 

FBO, Fuel Providers, and Aircraft Ground Support

  
 Business Name 
 
 Contact 
 
 Services / Description 
 
Fuel Prices
 
Comments
  
Madisonville Municipal Airport 936-348-2748
no information available

If you are affiliated with Madisonville Municipal Airport and would like to show here your services, contact info, web link, logo, and more, click here
no prices available
 
   write
Update Fuel Prices
 

Would you like to see your business listed on this page?

 If your business provides an interesting product or service to pilots, flight crews, aircraft, or users of the Madisonville Municipal Airport, you should consider listing it here.  To start the listing process, click on the button below
 
Add a business
 

Other Pages about Madisonville Municipal Airport

Update a link
 
Copyright © AirNav, LLC. All rights reserved. Privacy Policy  Contact